Погода в Карши

Погода в Карши : погода сейчас, прогноз погоды и архив. Всё, что Вы хотите узнать о погоде в Карши!

Хотите узнать прогноз погоды в Карши? Тогда Вам сюда: Погода в Карши

Поиск расширенной информации на нашем сайте:

Другие новости

Новости СМИ2

Главная страница сайта

Новости сайта

03.07.2017

Напоминаем, что на нашем специализированном сайте Метеоцентр.Азия вы можете получить высокодетализированные автоматические прогнозы погоды по пунктам России, СНГ и мира в авиационном формате (включающие направление и скорость ветра, видимость, явления погоды, количество и форму облачности, нижнюю и верхнюю границу облачности).


Погода в Карши - сегодня

Время (UTC), дата Ветер
(°,м/с) 
Видим.   Явления Облачность Т
(°С)
Тd
(°С)
f(%) Тe
(°С)
Pmin
(гПа)
dP
(гПа)
Po
(мм)
O2
(г/м3)
Тmin Tmax R s Состояние
почвы
18 17.04.18 170 (Ю) 10 км  в посл. час ливневой дождь  10/6 1500 м кучево-дожд., средняя 
[Cb calv|Ac und]
+7 +5.9 93 +6  1027.1  1.4  736  288    +11.3     
21 17.04.18 290 (З) 10 км    10/6 1500 м кучево-дожд., средняя 
[Cb calv|Ac und]
+6.9 +3.8 81 +5  1027.1  0.1  729  286           
00 18.04.18 310 (СЗ) 10 км    10/6 1500 м кучево-дожд., средняя 
[Cb calv|Ac und]
+6.2 +2.9 79 +4  1012.5  0.1  736  289           
03 18.04.18 320 (СЗ) 4000 м  дымка  10/10 1110 м кучево-дожд. 
[Cb calv]
+7.4 +5.8 90 +6  1026.6  0.5  736  288         
06 18.04.18 310 (СЗ) 10 км    8/4 660 м кучево-дожд. 
[Cb calv]
+9.8 +4 67 +9  1026.1  736  286  +6.2       
09 18.04.18 330 (СЗ) 10 км    9/4 1500 м кучево-дожд., средняя 
[Cb calv|Ac trans]
+12 +4.5 60 +11  1026.3  0.4  736  283           
12 18.04.18 300 (СЗ) 10 км    6/3 1500 м кучево-дожд., средняя 
[Cb calv|Ac trans]
+14.1 +3.8 50 +14  1023.7  -2.2  734  281           
18 18.04.18 070 (В) 10 км  {ливн. осадки}  5/3 1500 м кучево-дожд., средняя 
[Cb calv|Ac trans]
+10.1 +6.5 78 +10  1024  -0.5  734  284    +14.7  0.0     
21 18.04.18 060 (СВ) 10 км    4/0 средняя 
[Ac trans]
+8.1 +5.9 86 +8  1022.9  -1.4  733  286           
00 19.04.18 070 (В) 4000 м  дымка  3/0 средняя 
[Ac trans]
+7.2 +5.5 89 +7  1021.8  -1.2  732  287           
03 19.04.18 270 (З) 4000 м  дымка  6/3 1500 м кучево-дожд., средняя 
[Cb calv|Ac trans]
+8.6 +6.7 88 +9  1021.5  732  285      0.0     
06 19.04.18 нст () 10 км    6/0 верхняя 
[Ci fib]
+14.8 +3 45 +16  1020.7  0.2  732  279  +7.2    0.0     
09 19.04.18 330 (СЗ) 10 км    10/5 1500 м кучево-дожд., средняя 
[Cb calv|Ac und]
+15 +4.3 49 +15  1019.8  -0.9  732  279           
12 19.04.18 280 (З) 10 км    10/6 1500 м кучево-дожд., средняя 
[Cb calv|Ac und]
+15.4 +4.5 48 +16  1018.4  -1.3  731  278    +1.7       
15 19.04.18 290 (З) 10 км    6/4 1500 м кучево-дожд., средняя 
[Cb calv|Ac trans]
+11.4 +5.6 67 +12  1019.6  0.4  731  282    +16.2       
18 19.04.18 220 (ЮЗ) 10 км    5/4 1500 м кучево-дожд., средняя 
[Cb calv|Ac trans]
+9 +5 76 +10  1019.5  -0.3  731  284    +16.2       
21 19.04.18 080 (В) 10 км    5/3 1500 м кучево-дожд., средняя 
[Cb calv|Ac trans]
+7.1 +4.1 81 +7  1017.4  -2.3  729  286           
00 20.04.18 130 (ЮВ) 10 км    4/0 средняя 
[Ac trans]
+6.8 +3 77 +7  1016.4  -1  728  286           
03 20.04.18 090 (В) 10 км    5/0 средняя 
[Ac trans]
+8.6 +4.5 75 +8  1016.3  11.3  750  292           
06 20.04.18 200 (Ю) 10 км    5/3 1500 м кучево-дожд., средняя 
[Cb calv|Ac trans]
+16.7 +2.3 38 +17  1014.7  -0.3  728  276  +6.8         
09 20.04.18 160 (Ю) 10 км    5/0 средняя 
[Ac trans]
+18.1 +3.6 38 +19  1014  -0.5  728  274           
12 20.04.18 330 (СЗ) 10 км    5/0 средняя 
[Ac trans]
+18.5 +4 38 +19  1011.8  -2.1  726  273           
15 20.04.18 060 (СВ) 10 км    6/3 1500 м кучево-дожд., средняя 
[Cb calv|Ac trans]
+17 +4 42 +18  1011.7  -0.3  726  275    +19.8       
18 20.04.18 050 (СВ) 10 км    8/0 верхняя 
[Ci fib]
+14.4 +4.1 50 +15  1013.7  1.5  727  278    +19.8       
21 20.04.18 080 (В) 10 км    5/0 верхняя 
[Ci fib]
+11.6 +5.8 68 +11  1012.5  1.4  726  280           
Время (UTC), дата Ветер
(°,м/с) 
Видим.   Явления Облачность Т
(°С)
Тd
(°С)
f(%) Тe
(°С)
Pmin
(гПа)
dP
(гПа)
Po
(мм)
O2
(г/м3)
Тmin Tmax R s Состояние
почвы

Для получения пояснительной информации подведите курсор к названию столбца.

ПОГОДА в Карши - архив

Всё, что Вы хотите узнать о погоде в Карши - удобно и подробно!

Выберите нужную дату (начиная с 1 января 2015* года) и нажмите кнопку "Найти".
Будут отображены архивные сводки погоды по пункту Карши, начиная с указанной даты.


Отображать данные в формате CSV (для использования в таблицах Excel)


Внимание! Наш архив погоды предназначен исключительно для личного некоммерческого использования в познавательных целях. Если Вам необходимы официальные справки о состоянии погоды (для производственных, юридических, коммерческих и т.п. целей), обращайтесь в органы Росгидромета.

*Примечание: данная дата относится к архиву по метеостанциям СССР (Россия, СНГ, Балтия).
Архив по метеостанциям Зарубежной Европы и Азии (кроме Китая) хранится 10 дней, по другим регионам земного шара (Китай, Африка, Америка, Австралия, Океания) - 1 день.

Карши - район местоположения метеостанции


Название, широта, долгота, высота метеостанции:
Карши (аэропорт) 38.8°ш. 65.7°д. 376 м над ур. моря [Узбекистан]

Дополнительная информация

В oтличие oт бoльшинства пoгoдных сайтoв мы публикуем пoдрoбную метеoинфoрмацию в детальнoм прoфессиoнальнoм фoрмате.

Характеристики температуры и влажнoсти вoздуха измеряются на высoте 2 м в тени вдали oт зданий и деревьев.
Скoрoсть ветра измеряется на высoте 10 м (на урoвне рoста челoвека скoрoсть ветра ниже в 1.5-2 раза). Если метеoстанция нахoдится в гoрoде или в лесу, тo скoрoсть ветра занижена на 2-4 м/с пo сравнению с oткрытым местoм. Скoрoсть ветра над акватoриями крупных рек и oзёр, а также на вершинах хoлмoв на 2-5 м/с выше, чем в oбычных услoвиях.
Атмoсфернoе давление в разных тoчках местнoсти мoжет значительнo oтличаться oт давления на метеoстанции, в зависимoсти oт услoвий рельефа (при пoдъёме на 10 м давление пoнижается примернo на 1 мм рт.ст.).